Dublin, Ireland

7:30 AM IST on August 21, 2017 (GMT +0100)
Dublin International

Weather History for EIDW - September, 2011

Change the Weather History Date:

Sunday, September 18, 2011

  Actual Average Record
Temperature  
Mean Temperature 54 °F -  
Max Temperature 59 °F 59 °F 68 °F (1998)
Min Temperature 50 °F 47 °F 37 °F (2001)
Degree Days  
Heating Degree Days 10    
Growing Degree Days 4 (Base 50)    
Moisture  
Dew Point 50 °F    
Average Humidity 88    
Maximum Humidity 100    
Minimum Humidity 72    
Precipitation  
Precipitation 0.00 in 0.09 in - ()
Sea Level Pressure  
Sea Level Pressure 29.70 in    
Wind  
Wind Speed 15 mph ()    
Max Wind Speed 21 mph    
Max Gust Speed 31 mph    
Visibility 6.6 miles    
Events Rain    
Averages and records for this station are not official NWS values.
T = Trace of Precipitation, MM = Missing Value Source: Averaged Metar Reports

Daily Weather History Graph

Daily Weather History Graph

Search for Another Location

Airport or City:

Trip Planner

Search our weather history database for the weather conditions in past years. The results will help you decide how hot, cold, wet, or windy it might be!

Date:

Astronomy

Sep. 18, 2011 Rise Set
Actual Time 7:03 AM IST 7:34 PM IST
Civil Twilight 6:27 AM IST 8:09 PM IST
Nautical Twilight 5:45 AM IST 8:51 PM IST
Astronomical Twilight 5:01 AM IST 9:35 PM IST
Moon 9:38 PM IST (9/18) 1:47 PM IST (9/18)
Length of Visible Light 13h 41m
Length of Day
12h 31m
Waning Gibbous, 70% of the Moon is Illuminated
Sep 18
Waning Gibbous
Sep 20
Last Quarter
Sep 27
New
Oct 4
First Quarter
Oct 12
Full

Hourly Weather History & Observations

Time (IST) Temp. Dew Point Humidity Pressure Visibility Wind Dir Wind Speed Gust Speed Precip Events Conditions
12:00 AM 51.8 °F 50.0 °F 94% 29.56 in 5.6 mi West 17.3 mph - N/A Rain Light Rain Showers
12:30 AM 51.8 °F 50.0 °F 94% 29.56 in 6.2 mi West 15.0 mph - N/A   Partly Cloudy
1:00 AM 52 °F 51 °F 94% 29.58 in 16 mi West 15.7 mph - - Rain Light Rain Showers
1:00 AM 51.8 °F 50.0 °F 94% 29.56 in 6.2 mi West 15.0 mph - N/A   Partly Cloudy
1:30 AM 51.8 °F 51.8 °F 100% 29.56 in 5.6 mi West 15.0 mph - N/A Rain Light Rain Showers
2:00 AM 51.8 °F 51.8 °F 100% 29.56 in 5.6 mi West 12.7 mph - N/A Rain Light Rain Showers
2:30 AM 51.8 °F 51.8 °F 100% 29.56 in 6.2 mi West 16.1 mph - N/A   Mostly Cloudy
3:00 AM 51.8 °F 51.8 °F 100% 29.56 in 4.3 mi West 16.1 mph - N/A Rain Light Rain Showers
3:30 AM 51.8 °F 51.8 °F 100% 29.56 in 5.6 mi West 17.3 mph - N/A Rain Light Rain Showers
4:00 AM 51.8 °F 51.8 °F 100% 29.56 in 5.6 mi West 19.6 mph - N/A Rain Light Rain Showers
4:30 AM 51.8 °F 51.8 °F 100% 29.56 in 5.0 mi WNW 19.6 mph - N/A Rain Light Rain Showers
5:00 AM 51.8 °F 51.8 °F 100% 29.56 in 6.2 mi WNW 18.4 mph - N/A   Partly Cloudy
5:30 AM 51.8 °F 50.0 °F 94% 29.59 in 6.2 mi NW 17.3 mph - N/A   Mostly Cloudy
6:00 AM 51.8 °F 48.2 °F 88% 29.59 in 6.2 mi WNW 13.8 mph - N/A   Scattered Clouds
6:30 AM 50.0 °F 48.2 °F 94% 29.62 in 6.2 mi WNW 12.7 mph - N/A   Mostly Cloudy
7:00 AM 51 °F 49 °F 91% 29.63 in 12 mi WNW 15.7 mph - -   Partly Cloudy
7:00 AM 51.8 °F 50.0 °F 94% 29.62 in 6.2 mi WNW 16.1 mph - N/A   Mostly Cloudy
7:30 AM 51.8 °F 50.0 °F 94% 29.62 in 6.2 mi WNW 17.3 mph - N/A   Mostly Cloudy
8:00 AM 51.8 °F 50.0 °F 94% 29.65 in 6.2 mi WNW 17.3 mph - N/A   Mostly Cloudy
8:30 AM 53.6 °F 50.0 °F 88% 29.65 in 6.2 mi WNW 18.4 mph - N/A   Mostly Cloudy
9:00 AM 53.6 °F 50.0 °F 88% 29.65 in 6.2 mi WNW 18.4 mph 29.9 mph N/A   Mostly Cloudy
9:30 AM 53.6 °F 50.0 °F 88% 29.68 in 6.2 mi WNW 19.6 mph - N/A   Mostly Cloudy
10:00 AM 55.4 °F 50.0 °F 82% 29.68 in 6.2 mi WNW 18.4 mph 31.1 mph N/A   Mostly Cloudy
10:30 AM 53.6 °F 50.0 °F 88% 29.68 in 6.2 mi WNW 19.6 mph - N/A Rain Light Rain Showers
11:00 AM 53.6 °F 51.8 °F 94% 29.71 in 6.2 mi WNW 20.7 mph - N/A Rain Light Rain Showers
11:30 AM 55.4 °F 50.0 °F 82% 29.71 in 6.2 mi NW 19.6 mph 31.1 mph N/A   Mostly Cloudy
12:00 PM 55.4 °F 50.0 °F 82% 29.71 in 6.2 mi NW 20.7 mph - N/A   Mostly Cloudy
12:30 PM 57.2 °F 51.8 °F 82% 29.71 in 6.2 mi NW 18.4 mph - N/A Rain Light Rain Showers
1:00 PM 56 °F 51 °F 77% 29.75 in 16 mi NW 15.7 mph - - Rain Light Rain Showers
1:00 PM 57.2 °F 51.8 °F 82% 29.74 in 6.2 mi NW 17.3 mph 28.8 mph N/A Rain Light Rain Showers
1:30 PM 57.2 °F 50.0 °F 77% 29.74 in 6.2 mi NW 17.3 mph 28.8 mph N/A Rain Light Rain Showers
2:00 PM 55.4 °F 51.8 °F 88% 29.74 in 6.2 mi NW 15.0 mph - N/A Rain Light Rain Showers
2:30 PM 57.2 °F 51.8 °F 82% 29.77 in 6.2 mi WNW 15.0 mph - N/A   Mostly Cloudy
3:00 PM 57.2 °F 51.8 °F 82% 29.77 in 6.2 mi NW 12.7 mph - N/A   Mostly Cloudy
3:30 PM 55.4 °F 51.8 °F 88% 29.77 in 6.2 mi NW 13.8 mph - N/A Rain Light Rain Showers
4:00 PM 57.2 °F 51.8 °F 82% 29.77 in 6.2 mi NW 13.8 mph - N/A   Mostly Cloudy
4:30 PM 59.0 °F 51.8 °F 77% 29.77 in 6.2 mi NW 15.0 mph - N/A   Mostly Cloudy
5:00 PM 57.2 °F 50.0 °F 77% 29.77 in 6.2 mi NW 15.0 mph - N/A   Mostly Cloudy
5:30 PM 59.0 °F 50.0 °F 72% 29.80 in 6.2 mi NW 16.1 mph - N/A   Mostly Cloudy
6:00 PM 57.2 °F 50.0 °F 77% 29.80 in 6.2 mi NW 17.3 mph - N/A   Mostly Cloudy
6:30 PM 57.2 °F 50.0 °F 77% 29.80 in 6.2 mi NW 15.0 mph - N/A   Mostly Cloudy
7:00 PM 55.4 °F 50.0 °F 82% 29.80 in 6.2 mi WNW 15.0 mph - N/A   Mostly Cloudy
7:30 PM 55.4 °F 50.0 °F 82% 29.83 in 6.2 mi WNW 13.8 mph - N/A   Mostly Cloudy
8:00 PM 55.4 °F 50.0 °F 82% 29.83 in 6.2 mi WNW 13.8 mph - N/A   Mostly Cloudy
8:30 PM 55.4 °F 50.0 °F 82% 29.83 in 6.2 mi WNW 15.0 mph - N/A   Mostly Cloudy
9:00 PM 53.6 °F 48.2 °F 82% 29.83 in 6.2 mi WNW 15.0 mph - N/A   Mostly Cloudy
9:30 PM 51.8 °F 48.2 °F 88% 29.86 in 6.2 mi WNW 11.5 mph - N/A   Mostly Cloudy
10:00 PM 51.8 °F 48.2 °F 88% 29.86 in 6.2 mi West 10.4 mph - N/A   Mostly Cloudy
10:30 PM 51.8 °F 48.2 °F 88% 29.86 in 6.2 mi West 9.2 mph - N/A   Mostly Cloudy
11:00 PM 51.8 °F 48.2 °F 88% 29.86 in 6.2 mi West 9.2 mph - N/A   Mostly Cloudy
11:30 PM 51.8 °F 48.2 °F 88% 29.86 in 6.2 mi West 10.4 mph - N/A   Mostly Cloudy